This is the latest recevied weather packets stored in our database for station/object PY2ELM-13. If no packets are shown the sender has not sent any weather packets the latest 10 day(s).
| Time | Temp. | Humidity | Pressure | Rain* | Wind** | Luminosity | Snow |
|---|---|---|---|---|---|---|---|
| 1788039828 | 30° C | 45% | 1018.9 hPa | - | - | - | - |
| 1788039228 | 30.56° C | 45% | 1018.6 hPa | - | - | - | - |
| 1788038628 | 30.56° C | 45% | 1018.7 hPa | - | - | - | - |
| 1788038028 | 30.56° C | 45% | 1018.7 hPa | - | - | - | - |
| 1788037428 | 30.56° C | 45% | 1018.6 hPa | - | - | - | - |
| 1788036828 | 31.11° C | 45% | 1018.4 hPa | - | - | - | - |
| 1788036228 | 31.11° C | 45% | 1018.3 hPa | - | - | - | - |
| 1788035628 | 31.11° C | 44% | 1018.3 hPa | - | - | - | - |
| 1788035028 | 31.11° C | 45% | 1018.3 hPa | - | - | - | - |
| 1788034428 | 31.11° C | 45% | 1018.1 hPa | - | - | - | - |
| 1788033828 | 31.11° C | 44% | 1018 hPa | - | - | - | - |
| 1788033228 | 31.11° C | 44% | 1017.9 hPa | - | - | - | - |
| 1788032628 | 31.11° C | 44% | 1017.8 hPa | - | - | - | - |
| 1788032028 | 31.11° C | 45% | 1017.6 hPa | - | - | - | - |
| 1788031428 | 31.67° C | 44% | 1017.5 hPa | - | - | - | - |
| 1788030828 | 31.11° C | 45% | 1017.5 hPa | - | - | - | - |
| 1788030228 | 31.67° C | 44% | 1017.6 hPa | - | - | - | - |
| 1788029628 | 31.67° C | 42% | 1017.5 hPa | - | - | - | - |
| 1788029028 | 32.22° C | 42% | 1017.3 hPa | - | - | - | - |
| 1788028428 | 32.22° C | 42% | 1017.5 hPa | - | - | - | - |
| 1788027828 | 32.22° C | 41% | 1017.3 hPa | - | - | - | - |
| 1788027228 | 32.22° C | 42% | 1017.4 hPa | - | - | - | - |
| 1788026628 | 32.78° C | 41% | 1017.2 hPa | - | - | - | - |
| 1788026028 | 33.89° C | 38% | 1017.1 hPa | - | - | - | - |
| 1788025428 | 33.89° C | 38% | 1017.2 hPa | - | - | - | - |
* Rain since midnight (hover to see other rain measurements)
** Current wind speed in m/s (hover to see current wind gust speed)